Temp
62 62 62 62 61 61 60 61 61 62 62 62 63 63 63 63 62 69 72 83 85 76 76 89 91 90 90 85 83 74 62 57 60 62 67 75 73 87 88 80 76 77 76 85 86
62 62 61 61 61 60 60 61 61 61 62 62 63 62 62 62 67 74 84 82 80 77 87 87 86 89 85 84 80 70 59 62 68 69 68 76 78 80 83 75 74 73 80 88 88
61 61 61 61 61 61 60 61 61 61 62 62 62 62 62 61 67 80 84 83 78 78 89 89 89 87 81 86 79 71 61 71 72 74 78 77 82 84 81 75 70 72 72 85 85
61 61 61 61 61 60 61 60 61 61 61 61 61 62 62 67 62 87 86 80 78 87 89 87 84 77 77 80 79 74 75 76 78 80 80 75 82 82 83 82 82 81 80 81 78
60 61 60 60 60 60 60 60 60 60 60 60 61 62 64 66 75 85 79 79 87 89 86 84 81 80 75 84 86 75 77 79 82 85 80 81 81 83 80 87 84 85 82 76 82
60 60 60 60 59 59 59 59 59 59 59 60 61 62 66 64 93 88 88 86 91 88 86 86 83 88 82 83 81 83 81 78 83 79 83 81 81 83 82 89 82 81 80 82 84
59 59 59 59 59 59 59 59 59 59 60 61 62 71 72 73 94 89 90 88 91 93 88 92 92 86 84 79 88 85 77 82 83 82 81 83 77 75 80 85 86 87 87 84 85
59 59 59 59 59 59 59 59 59 59 61 62 63 68 67 92 94 92 91 92 95 96 95 96 94 86 80 87 83 76 75 65 76 78 86 81 68 78 80 81 83 86 86 83 81
59 58 59 59 59 59 58 58 59 62 62 64 60 63 70 89 91 98 98 95 95 96 95 103 88 81 82 73 66 68 59 65 71 79 78 76 70 76 81 81 81 83 82 81 80
59 58 58 58 58 58 57 57 62 61 64 74 80 68 78 86 93 99 99 100 94 91 89 86 79 71 69 64 54 58 61 67 68 74 74 71 68 78 78 81 80 77 75 74 77
59 58 58 58 58 57 58 64 67 65 70 72 77 80 88 93 99 95 99 95 91 84 73 79 67 61 69 73 74 70 69 67 74 79 73 67 71 74 77 78 69 67 66 67 70
58 58 58 57 58 56 54 69 81 82 72 81 85 88 92 95 89 94 98 84 82 73 78 73 66 75 79 77 74 73 68 68 75 81 74 72 70 75 77 72 69 66 67 66 64
57 57 57 57 56 54 66 78 89 90 72 83 86 87 90 92 87 88 92 86 80 75 75 69 75 85 80 76 75 72 68 70 71 76 76 70 67 69 70 72 71 67 68 65 63
57 57 57 56 60 73 76 85 87 88 62 76 82 88 93 91 84 97 96 88 81 75 77 75 84 79 74 72 77 65 78 77 75 69 57 70 56 63 66 65 65 65 64 66 66
56 57 56 55 59 69 86 91 88 82 48 83 83 94 92 84 86 88 96 88 78 78 81 74 78 78 74 77 81 73 78 75 73 66 59 63 55 60 68 64 64 65 66 65 67
56 57 56 60 57 70 83 88 83 61 53 78 86 82 80 84 86 90 88 90 88 80 80 77 85 81 79 84 83 84 75 70 67 61 49 59 55 53 56 60 65 69 69 66 65
56 56 54 68 72 86 87 79 58 53 80 77 78 82 79 79 82 84 81 75 69 63 63 75 77 84 87 76 79 73 65 50 48 48 48 61 56 48 60 64 66 66 64 69 66
55 53 59 68 76 84 76 66 51 70 74 78 83 82 76 81 80 82 77 70 77 73 66 61 60 79 80 72 68 67 61 50 42 44 50 63 49 56 62 65 67 67 63 63 63
53 68 72 76 77 77 68 54 59 70 82 82 82 75 74 81 80 78 74 73 73 70 61 59 64 81 82 76 72 67 59 66 55 56 49 54 51 59 64 62 64 65 65 63 63
54 64 75 89 84 75 63 56 68 81 84 83 73 74 70 76 75 72 70 77 74 76 74 66 58 76 81 82 78 68 72 56 54 41 40 50 52 48 56 58 61 59 61 59 60
57 67 83 93 83 68 57 64 74 85 85 79 75 73 73 72 74 68 69 75 80 79 79 69 61 64 73 67 65 66 62 59 56 52 45 41 45 56 54 57 57 58 60 59 60
61 63 86 88 65 65 62 72 70 81 86 84 79 76 73 74 70 70 72 73 83 81 71 67 62 54 62 74 78 73 63 59 48 48 50 47 44 60 57 58 59 60 60 59 60
56 65 85 83 60 62 70 77 81 80 81 79 76 79 78 71 62 73 74 77 80 77 67 65 56 48 54 63 68 65 69 64 59 55 50 43 45 60 59 58 58 59 56 59 59
58 61 72 74 73 67 67 70 73 85 83 83 78 79 74 70 73 70 68 69 73 71 65 67 59 54 48 56 63 62 67 65 58 48 48 49 49 54 56 55 56 57 56 57 58
63 63 66 60 65 64 65 70 72 73 80 79 73 76 73 64 68 67 67 65 68 67 66 66 56 58 63 68 69 68 68 65 59 57 49 51 50 52 54 56 57 57 57 57 57
60 59 63 61 65 67 65 65 68 71 70 69 59 66 76 65 68 62 62 61 61 62 59 65 56 59 58 68 69 67 70 67 65 62 58 56 51 59 60 60 60 61 59 59 60
62 65 61 58 63 65 64 67 67 68 71 72 65 63 69 66 72 68 65 64 64 64 60 62 58 54 50 63 64 55 65 66 64 61 59 50 53 58 57 58 59 61 62 59 59
MSLP
1017.37 1017.01 1016.63 1016.29 1016.02 1015.82 1015.56 1015.24 1015.06 1014.84 1014.63 1014.46 1014.26 1014.09 1013.90 1013.58 1012.69 1012.49 1011.45 1009.28 1008.86 1008.71 1009.00 1008.68 1008.34 1007.98 1007.87 1008.50 1009.84 1012.06 1013.93 1014.26 1013.81 1014.07 1012.26 1008.78 1008.91 1006.24 1006.89 1008.10 1009.26 1010.23 1011.07 1009.72 1010.12
1017.46 1017.02 1016.64 1016.33 1016.00 1015.80 1015.58 1015.31 1015.00 1014.83 1014.66 1014.44 1014.15 1013.99 1013.77 1013.47 1012.76 1011.08 1008.80 1008.47 1008.48 1008.58 1008.75 1008.42 1007.85 1007.44 1007.59 1007.18 1009.96 1011.79 1014.10 1013.18 1012.78 1011.16 1011.59 1009.36 1009.22 1007.94 1007.62 1009.15 1010.62 1010.42 1009.76 1009.90 1010.29
1017.59 1017.11 1016.67 1016.27 1015.97 1015.64 1015.37 1015.06 1014.82 1014.58 1014.43 1014.33 1014.14 1013.89 1013.59 1013.33 1012.31 1008.47 1007.25 1007.73 1008.02 1008.56 1008.40 1007.93 1007.66 1007.45 1006.93 1006.55 1008.64 1010.41 1011.87 1011.28 1010.79 1009.20 1009.48 1009.05 1007.48 1007.92 1007.27 1008.02 1009.19 1009.54 1009.05 1008.46 1009.85
1017.48 1017.04 1016.61 1016.25 1015.91 1015.58 1015.27 1014.96 1014.71 1014.58 1014.45 1014.37 1014.20 1013.89 1013.57 1013.18 1010.74 1006.76 1006.31 1007.00 1007.95 1008.21 1008.18 1007.77 1007.44 1007.34 1006.68 1006.25 1008.31 1009.55 1009.47 1008.95 1007.72 1008.20 1008.27 1008.49 1006.83 1007.10 1006.61 1006.43 1007.10 1007.67 1007.66 1008.58 1009.29
1017.64 1017.12 1016.69 1016.29 1015.87 1015.47 1015.12 1014.82 1014.60 1014.50 1014.47 1014.42 1014.21 1013.85 1013.43 1012.42 1009.37 1006.66 1006.76 1007.35 1007.96 1008.20 1007.97 1007.61 1007.50 1006.84 1006.05 1005.65 1006.11 1007.31 1007.77 1007.70 1006.93 1007.74 1008.69 1007.82 1006.77 1006.27 1006.13 1005.90 1006.35 1007.27 1008.02 1008.46 1008.89
1017.75 1017.12 1016.53 1016.08 1015.71 1015.35 1015.00 1014.67 1014.44 1014.34 1014.32 1014.27 1014.15 1013.99 1013.31 1010.94 1006.36 1006.46 1006.79 1007.51 1007.57 1007.69 1007.35 1007.04 1006.76 1005.89 1005.70 1005.71 1005.71 1005.35 1005.95 1006.68 1007.93 1007.84 1007.69 1007.48 1005.88 1005.53 1005.70 1005.36 1006.51 1007.05 1007.70 1007.90 1008.15
1017.74 1017.17 1016.55 1015.96 1015.43 1015.05 1014.72 1014.45 1014.24 1014.12 1014.11 1014.10 1014.00 1013.57 1012.15 1008.63 1006.12 1006.38 1006.79 1006.85 1006.98 1006.96 1006.85 1006.14 1005.91 1005.88 1006.05 1005.97 1005.11 1005.69 1006.19 1006.30 1006.36 1006.39 1006.28 1006.85 1006.05 1006.00 1005.73 1005.59 1005.75 1006.04 1006.46 1007.46 1007.50
1017.58 1017.00 1016.40 1015.87 1015.31 1014.78 1014.41 1014.14 1013.93 1013.77 1013.81 1013.90 1013.94 1013.28 1010.59 1006.25 1005.72 1006.72 1006.37 1006.51 1006.27 1006.13 1006.08 1005.73 1005.58 1006.07 1006.22 1006.15 1006.09 1006.64 1006.82 1007.16 1006.52 1006.43 1005.68 1006.38 1006.80 1006.62 1006.03 1005.53 1005.55 1005.54 1006.41 1007.30 1007.76
1017.50 1016.91 1016.31 1015.69 1015.16 1014.62 1014.14 1013.73 1013.44 1013.31 1013.41 1013.58 1013.72 1012.66 1008.98 1005.31 1005.62 1005.05 1005.53 1005.78 1005.75 1005.74 1005.71 1005.58 1005.75 1006.35 1006.33 1006.87 1007.27 1007.68 1007.80 1007.48 1007.35 1006.66 1006.55 1006.57 1006.88 1006.44 1006.12 1006.01 1005.42 1005.64 1006.54 1007.52 1008.26
1017.41 1016.81 1016.27 1015.62 1015.02 1014.44 1013.78 1013.51 1012.94 1012.97 1013.15 1013.00 1012.10 1011.58 1007.52 1005.35 1004.84 1004.79 1004.73 1004.99 1005.26 1005.56 1005.90 1005.90 1006.20 1006.74 1007.44 1007.92 1008.40 1008.07 1007.78 1007.09 1007.07 1006.86 1007.01 1006.88 1006.46 1005.67 1005.20 1006.06 1006.06 1006.77 1008.07 1008.99 1008.04
1017.38 1016.60 1016.03 1015.48 1014.82 1014.42 1013.47 1013.10 1013.07 1012.45 1011.58 1009.94 1008.64 1007.25 1005.10 1004.43 1004.24 1004.45 1004.50 1004.93 1005.17 1005.62 1006.19 1006.09 1006.77 1007.44 1007.13 1007.62 1007.44 1007.58 1007.60 1007.30 1006.24 1006.03 1006.26 1006.85 1006.24 1005.88 1005.48 1006.54 1007.96 1008.89 1009.34 1009.55 1009.18
1017.32 1016.46 1015.71 1015.13 1014.62 1014.24 1014.10 1012.45 1009.33 1007.98 1008.35 1007.77 1006.86 1006.24 1005.11 1004.22 1004.11 1004.14 1004.26 1005.07 1005.54 1005.93 1006.02 1006.39 1006.42 1006.68 1006.53 1006.90 1007.25 1006.66 1006.71 1006.07 1005.46 1005.14 1006.00 1005.66 1005.71 1004.79 1005.92 1007.11 1007.85 1008.69 1009.75 1010.35 1012.18
1017.18 1016.32 1015.42 1014.49 1014.03 1013.96 1012.47 1010.15 1008.00 1007.42 1007.60 1005.88 1005.38 1004.78 1003.92 1003.53 1003.59 1003.57 1004.05 1004.69 1005.21 1005.69 1005.73 1005.80 1005.36 1006.04 1005.72 1005.88 1005.96 1005.65 1005.47 1005.51 1004.71 1004.22 1004.27 1005.00 1005.90 1006.56 1007.26 1007.67 1008.83 1009.51 1009.68 1009.34 1008.99
1017.04 1016.14 1015.47 1014.21 1013.34 1011.88 1010.47 1007.77 1007.54 1007.58 1007.36 1004.63 1003.58 1003.59 1003.17 1003.23 1003.36 1003.01 1003.42 1004.32 1004.75 1005.09 1005.15 1004.91 1003.97 1004.76 1004.77 1005.07 1004.70 1004.57 1004.04 1004.12 1004.50 1004.90 1005.25 1005.11 1006.45 1006.93 1007.36 1007.92 1008.55 1009.22 1009.66 1008.97 1008.34
1016.74 1015.92 1015.26 1015.52 1013.90 1011.64 1008.08 1007.06 1006.84 1007.09 1006.68 1002.16 1002.51 1001.86 1002.53 1003.15 1002.48 1002.82 1002.90 1003.59 1004.35 1004.69 1005.00 1004.58 1004.03 1004.02 1004.25 1003.78 1003.39 1003.69 1003.51 1004.19 1004.69 1005.24 1005.75 1005.98 1007.08 1007.35 1007.27 1008.50 1009.00 1008.80 1010.32 1010.53 1009.82
1016.04 1015.59 1015.06 1014.10 1013.71 1009.88 1008.10 1007.25 1007.16 1007.63 1005.08 1002.16 1001.89 1001.98 1002.77 1002.96 1002.80 1002.56 1002.89 1003.13 1003.54 1004.32 1004.38 1004.09 1003.35 1003.20 1002.80 1002.77 1003.00 1003.36 1003.90 1004.51 1005.07 1005.92 1006.86 1006.99 1007.97 1009.30 1009.57 1009.79 1010.03 1009.47 1010.57 1011.72 1011.50
1015.27 1014.18 1014.94 1013.35 1010.62 1008.19 1008.05 1008.09 1008.08 1006.70 1003.42 1002.33 1002.07 1002.19 1002.56 1002.79 1002.81 1002.58 1002.95 1003.44 1004.13 1004.68 1004.91 1004.12 1003.72 1002.93 1002.91 1002.98 1003.32 1004.21 1005.14 1006.10 1006.87 1007.35 1007.95 1007.74 1008.72 1011.57 1011.00 1010.82 1010.68 1010.45 1010.13 1009.92 1011.10
1014.59 1012.72 1011.52 1010.94 1009.35 1008.76 1008.77 1008.73 1007.80 1004.97 1003.77 1002.67 1002.25 1001.96 1002.52 1002.48 1002.64 1002.46 1002.91 1003.62 1003.78 1004.33 1004.83 1004.83 1004.10 1003.30 1003.49 1003.96 1004.54 1005.05 1005.62 1007.15 1007.73 1008.51 1008.75 1008.75 1010.26 1010.90 1010.76 1010.21 1010.99 1011.29 1010.99 1011.55 1012.34
1013.95 1011.55 1010.50 1008.59 1008.75 1008.99 1009.36 1008.75 1006.45 1004.51 1002.98 1002.32 1001.71 1001.84 1002.00 1001.92 1002.10 1002.51 1002.88 1003.46 1004.39 1004.72 1005.59 1005.34 1004.50 1004.14 1004.09 1004.29 1004.76 1004.85 1005.46 1005.97 1007.47 1008.42 1009.33 1010.05 1011.55 1011.51 1011.12 1010.98 1011.75 1011.70 1012.31 1012.25 1013.22
1014.53 1011.87 1008.73 1006.83 1007.67 1008.52 1009.08 1007.98 1005.77 1004.23 1003.18 1002.44 1002.27 1002.00 1002.13 1002.20 1002.28 1002.62 1003.65 1004.08 1004.72 1004.76 1004.81 1005.55 1005.21 1004.60 1004.19 1003.90 1003.79 1004.50 1005.26 1006.17 1007.68 1009.53 1010.39 1010.72 1011.38 1012.10 1011.57 1011.84 1012.11 1012.15 1013.00 1013.53 1012.58
1014.37 1011.27 1006.60 1006.21 1007.36 1008.58 1008.52 1007.11 1005.52 1003.96 1003.09 1002.59 1002.13 1002.39 1002.65 1002.71 1003.00 1003.57 1004.28 1004.41 1004.45 1004.73 1004.32 1006.40 1006.26 1006.13 1005.53 1005.23 1004.96 1004.85 1005.26 1006.39 1008.09 1009.42 1010.87 1011.31 1012.23 1012.25 1012.04 1012.20 1012.35 1013.30 1013.40 1013.26 1012.43
1014.51 1011.09 1006.50 1006.53 1008.04 1008.03 1007.79 1006.73 1005.25 1003.88 1002.84 1002.04 1002.02 1002.50 1002.81 1003.16 1003.74 1004.03 1003.94 1004.52 1004.71 1004.74 1005.85 1006.54 1006.88 1007.15 1006.67 1005.28 1004.87 1004.82 1005.42 1006.28 1008.24 1009.49 1010.44 1011.20 1012.63 1012.58 1012.08 1012.30 1013.09 1013.63 1014.03 1014.05 1013.53
1015.89 1011.52 1006.68 1006.58 1007.67 1007.80 1006.99 1006.22 1005.01 1003.80 1002.91 1002.41 1002.55 1002.87 1002.92 1003.38 1004.12 1004.07 1005.35 1005.69 1005.83 1005.83 1006.72 1007.15 1007.70 1008.15 1007.13 1006.05 1004.94 1005.18 1005.39 1005.90 1007.11 1008.59 1010.23 1011.60 1012.38 1012.34 1012.27 1012.70 1013.08 1013.83 1014.87 1014.94 1014.56
1016.21 1012.10 1008.45 1007.38 1007.51 1007.96 1007.68 1006.28 1004.92 1003.65 1003.00 1002.82 1003.08 1003.13 1003.33 1003.40 1003.28 1003.98 1005.92 1008.13 1007.16 1007.22 1007.48 1007.66 1008.30 1008.63 1008.35 1007.53 1006.67 1005.91 1005.58 1005.97 1007.08 1008.82 1010.13 1011.08 1012.01 1012.57 1012.97 1013.36 1013.48 1014.16 1014.92 1015.08 1015.13
1015.63 1013.06 1011.88 1010.37 1009.33 1009.42 1008.59 1007.13 1005.54 1004.49 1003.78 1003.72 1004.05 1004.19 1004.34 1004.49 1004.45 1005.12 1007.17 1007.92 1007.96 1007.53 1007.66 1007.67 1008.50 1008.57 1008.33 1007.39 1006.51 1005.91 1005.61 1006.01 1006.95 1008.23 1009.66 1010.82 1011.94 1012.89 1013.20 1013.35 1013.53 1013.98 1014.38 1014.63 1014.79
1016.04 1015.24 1013.81 1012.65 1010.95 1009.89 1008.66 1008.03 1006.97 1006.17 1006.55 1006.10 1007.64 1006.97 1004.95 1005.12 1004.97 1005.67 1006.56 1007.61 1007.69 1007.63 1007.78 1007.79 1007.90 1008.25 1008.35 1007.65 1006.51 1005.74 1004.98 1005.77 1006.72 1007.84 1009.28 1010.47 1011.92 1012.58 1013.00 1013.19 1013.53 1013.86 1013.97 1014.23 1014.30
1017.96 1016.66 1015.32 1013.24 1011.79 1010.77 1009.90 1009.14 1008.48 1008.60 1007.46 1008.63 1008.89 1008.55 1007.07 1008.25 1005.71 1005.60 1005.55 1006.07 1006.19 1006.78 1007.69 1007.90 1008.07 1008.53 1008.62 1008.00 1007.04 1006.15 1005.12 1005.54 1006.48 1007.76 1008.82 1010.24 1011.55 1012.34 1013.05 1013.36 1013.52 1013.57 1013.71 1013.88 1013.90
Wind_Speed
18 16 14 12 10 10 10 10 9 9 9 10 9 9 10 12 15 3 7 11 7 8 2 7 9 13 15 9 8 5 3 0 5 3 10 27 14 8 8 19 17 9 15 7 15
18 17 15 13 12 11 10 9 10 9 9 10 10 9 9 11 4 10 13 14 4 6 4 8 13 13 12 6 7 7 4 11 12 16 14 21 12 11 4 19 17 13 15 7 13
18 17 16 15 13 11 12 11 11 11 10 10 10 10 10 8 4 10 13 18 11 7 6 9 13 16 13 9 7 7 9 9 16 25 20 12 16 10 7 5 20 20 16 15 9
20 19 18 17 15 12 11 12 11 11 10 10 10 9 10 4 4 2 14 14 9 5 8 9 9 9 10 9 10 8 14 14 14 24 7 10 16 12 5 5 22 19 15 10 13
19 19 18 16 15 13 11 11 12 11 10 9 9 9 3 3 10 2 9 8 7 5 7 10 13 15 8 9 5 13 13 18 15 9 18 18 13 9 4 1 15 15 13 14 15
19 19 19 17 15 13 11 11 10 12 10 9 8 8 2 5 10 10 9 7 9 8 9 11 10 9 8 10 9 1 13 19 8 15 14 5 1 7 6 6 22 18 17 18 16
20 19 19 18 17 15 13 10 9 10 9 8 7 5 5 16 1 9 10 7 8 9 13 12 8 10 10 9 10 9 7 6 12 8 5 6 8 6 4 3 8 7 12 12 9
21 20 20 19 18 17 14 11 10 10 8 6 5 4 10 9 11 11 10 11 12 10 10 10 8 6 5 9 7 7 6 5 2 3 6 3 8 4 8 7 9 13 11 11 9
23 21 21 20 19 18 16 14 12 7 5 3 3 3 11 3 6 8 15 14 12 10 9 10 4 6 10 5 6 6 3 4 5 6 2 3 5 9 13 14 10 13 14 12 8
24 23 21 20 19 18 18 9 5 6 3 7 8 3 8 12 8 11 9 9 7 6 7 7 5 2 6 7 5 4 7 1 10 4 3 6 10 10 8 11 9 7 14 15 12
25 24 22 20 18 17 12 1 2 2 5 11 8 6 3 15 8 7 9 7 7 4 7 9 2 3 8 7 15 6 11 13 18 9 6 9 16 15 14 8 13 11 13 15 24
24 25 24 21 18 14 3 5 9 6 6 19 20 18 22 10 8 8 8 7 7 8 9 7 8 8 11 11 16 15 15 22 20 19 10 16 17 21 5 4 9 15 8 14 18
24 24 25 25 23 3 6 11 10 16 5 13 13 10 15 5 6 10 11 9 9 10 12 10 13 7 16 17 12 19 18 13 5 6 4 5 5 7 1 11 8 4 11 14 17
25 24 23 30 1 2 6 10 17 11 4 8 12 11 12 6 11 13 13 9 8 12 12 10 15 17 16 17 16 10 7 8 11 10 5 4 8 4 3 1 2 8 5 13 16
25 24 22 9 8 5 10 8 2 5 4 5 13 6 8 11 2 10 9 8 11 12 11 13 12 16 15 17 5 7 2 7 7 9 5 5 5 6 6 2 7 6 6 4 4
28 24 22 2 4 12 13 13 4 1 8 6 10 7 10 11 14 11 8 7 9 11 11 10 10 8 9 8 7 9 7 6 6 4 3 6 6 7 6 6 14 17 19 8 5
32 31 9 6 7 6 7 2 1 5 7 5 11 9 11 9 12 14 10 7 5 4 7 12 15 16 4 6 10 13 12 6 6 6 6 2 5 5 9 8 6 11 23 12 14
34 32 6 8 9 9 2 2 5 9 13 10 14 12 12 12 13 12 6 7 12 10 6 3 8 7 4 4 6 5 8 3 4 3 6 8 3 4 3 2 6 12 14 17 12
32 3 4 7 11 3 1 4 7 5 7 6 6 7 11 14 11 10 11 7 4 3 6 3 6 5 1 4 8 6 3 6 1 4 4 2 4 2 5 8 10 12 11 13 2
7 5 6 9 10 3 2 7 8 12 17 20 4 9 8 5 2 1 8 6 2 4 5 4 7 8 9 9 5 4 4 3 3 2 3 2 4 2 7 5 9 13 13 7 13
3 4 3 10 6 2 4 7 11 18 17 17 7 9 8 3 5 4 4 2 3 4 8 6 4 7 8 5 9 9 7 4 4 4 3 3 2 4 2 4 4 5 7 9 9
5 4 5 7 3 4 5 7 9 21 20 8 2 6 9 3 4 7 3 0 7 7 2 2 3 3 8 19 14 11 3 6 6 7 4 5 1 4 3 1 4 8 6 8 12
5 5 6 4 3 5 8 16 19 20 19 4 5 10 7 6 5 9 4 17 13 4 3 2 2 4 9 9 7 5 8 3 4 4 1 2 3 5 4 5 6 6 6 7 10
4 4 4 2 4 5 9 11 15 13 14 7 9 14 10 7 8 6 17 1 5 6 9 3 2 6 6 8 8 11 9 3 6 3 1 2 2 5 8 6 3 5 5 6 7
3 4 4 5 6 12 13 14 16 13 14 7 7 11 14 7 6 5 6 4 3 5 5 5 2 3 9 12 13 14 16 4 4 5 4 1 6 5 6 5 6 5 5 6 4
4 5 6 9 10 11 11 10 15 18 8 10 18 31 13 7 7 5 9 6 8 1 2 4 6 4 8 14 15 15 6 7 4 6 8 7 6 7 6 5 5 7 4 5 5
6 7 4 7 9 11 3 8 12 10 13 14 19 14 16 19 3 4 2 7 7 8 5 2 3 2 6 9 13 9 3 6 7 8 3 3 6 8 6 5 4 6 8 7 7
Wind_Direction
8 6 1 357 353 341 332 324 321 318 315 314 318 327 324 319 304 193 238 232 204 174 136 274 255 244 245 229 102 85 65 168 177 259 291 296 313 356 38 63 67 94 8 142 154
5 3 358 355 348 339 327 319 314 311 309 311 321 327 325 334 278 250 239 251 235 148 259 285 289 289 255 234 106 115 338 202 218 191 199 256 293 56 21 93 74 100 206 157 173
1 359 356 353 347 338 327 320 318 315 316 322 326 327 323 328 312 245 192 233 186 172 261 277 281 286 295 272 168 163 190 194 224 225 210 217 252 192 182 123 152 174 196 174 207
356 357 353 349 344 337 327 317 314 312 314 321 324 318 326 257 209 203 188 189 149 205 273 290 292 297 276 268 125 125 215 179 232 228 195 224 257 252 196 205 177 186 194 158 221
349 348 348 346 342 335 325 316 312 310 313 318 320 325 297 227 254 154 97 112 147 182 243 265 279 284 343 331 350 161 190 199 225 259 254 250 260 176 79 336 163 174 174 188 206
346 345 343 343 340 332 322 310 305 304 307 310 310 317 253 255 247 155 153 145 218 189 251 251 256 303 318 323 310 99 182 203 239 200 255 290 348 91 249 156 166 167 188 199 181
344 343 341 340 338 332 324 311 297 293 296 296 297 285 263 242 120 155 175 193 212 227 241 264 305 16 320 322 312 334 42 44 34 15 18 23 334 187 220 208 155 143 141 170 146
342 341 339 339 336 332 326 316 301 289 284 267 269 266 252 250 246 189 197 213 221 232 249 285 313 335 283 302 350 31 48 9 0 322 223 79 290 299 245 206 210 157 139 123 117
339 338 338 336 336 331 323 310 295 284 228 159 205 230 265 233 223 226 185 212 209 225 253 269 293 261 321 10 10 14 271 303 302 307 346 146 254 269 225 232 227 162 141 133 125
336 336 335 333 332 330 318 285 277 306 198 196 257 271 258 224 205 227 224 218 229 211 255 254 267 325 356 40 303 268 287 7 272 250 249 301 282 248 235 240 217 83 79 55 39
334 333 333 331 327 330 332 237 354 276 249 204 197 232 283 215 221 210 189 219 271 199 238 256 253 184 278 244 272 271 262 271 267 210 222 234 250 252 235 236 67 64 75 139 193
333 330 330 327 323 324 271 244 238 290 271 225 250 254 258 275 171 196 188 190 218 248 241 270 245 221 231 243 251 242 250 260 266 226 199 234 239 246 300 103 117 112 97 78 59
330 329 328 324 320 270 226 237 287 304 298 278 218 231 254 211 258 201 175 203 231 228 241 224 233 145 262 272 250 248 236 264 300 303 265 234 321 121 91 105 101 100 124 117 142
329 328 331 329 59 316 234 239 239 261 305 258 193 236 242 202 234 255 182 184 236 241 247 248 261 191 235 252 254 257 303 346 332 336 291 313 283 212 171 114 169 162 183 152 148
327 326 325 315 306 275 282 300 94 51 299 178 162 225 180 209 197 231 191 187 238 266 279 283 301 211 229 239 261 259 335 285 285 284 326 298 75 246 106 4 300 253 151 205 104
322 322 328 151 205 246 295 300 53 6 247 192 156 172 180 219 246 253 208 189 202 241 274 272 292 299 276 296 293 302 329 336 320 290 357 262 167 357 349 303 357 358 350 185 144
322 314 300 284 234 319 290 268 357 219 301 135 161 191 185 207 231 255 188 200 197 258 266 271 267 266 2 6 357 13 5 326 340 350 244 358 77 230 337 349 353 5 12 130 155
323 311 218 213 241 273 309 19 237 252 229 213 237 178 188 216 207 241 207 197 216 206 253 277 342 13 359 130 175 273 155 228 290 270 288 350 97 280 247 290 328 42 62 50 21
317 294 228 240 212 248 65 220 217 217 266 18 318 205 197 215 212 195 230 222 89 89 134 358 292 341 238 168 135 247 259 204 212 354 16 239 53 344 349 355 8 35 21 33 337
313 288 251 228 176 153 146 247 255 275 293 306 59 277 265 268 276 158 12 59 21 220 135 289 319 344 338 335 326 21 261 357 32 224 274 275 302 210 327 360 5 8 18 44 48
260 297 295 129 86 94 216 243 276 267 260 274 301 308 331 68 238 106 139 300 206 233 90 278 67 305 353 329 302 320 318 353 110 137 179 253 241 353 20 58 357 8 69 81 102
321 290 201 122 125 206 232 247 265 278 286 314 301 296 299 57 41 342 289 267 269 169 195 277 181 284 264 278 277 253 233 138 125 281 206 180 213 253 225 29 252 82 117 111 106
311 268 267 151 236 253 263 252 258 271 278 309 290 288 259 241 130 168 227 3 306 56 49 332 0 331 331 331 353 23 312 6 109 69 353 74 265 208 219 131 62 84 119 119 101
282 298 322 1 240 291 303 293 301 290 259 293 294 298 299 271 286 205 130 65 9 60 337 92 165 176 214 254 276 301 312 38 107 100 249 243 96 65 58 74 83 109 130 131 165
227 336 12 333 329 329 313 306 308 307 325 340 274 266 282 272 282 130 130 152 293 219 149 130 188 294 289 293 299 294 278 109 97 134 149 62 94 80 110 118 115 137 107 93 92
19 2 339 295 284 302 294 352 352 357 6 336 16 338 265 275 242 165 135 179 217 243 159 226 196 214 274 282 286 293 240 141 150 154 117 143 122 111 98 82 108 135 124 95 88
341 334 295 299 317 311 17 345 334 359 306 46 3 345 329 3 64 116 177 178 174 158 200 179 152 109 269 284 304 304 275 137 107 70 97 105 149 132 116 115 146 147 175 184 183